Regional Weather Roundup
Issued by NWS

Home | Current Version | Previous Version | Text Only | Print | Product List | Glossary On
Versions: 1 2 3 4 5 6 7 8 9 10 11 12 13 14 15 16 17 18 19 20 21 22 23 24 25 26 27 28 29 30 31 32 33 34 35 36 37 38 39 40 41 42 43 44 45 46 47 48 49 50
000
ASUS43 KTOP 290808
RWRKS

WEATHER ROUNDUP FOR KANSAS
NATIONAL WEATHER SERVICE GOODLAND KS
300 AM CDT SUN MAY 29 2016

NOTE:  "FAIR" INDICATES FEW OR NO CLOUDS BELOW 12,000 FEET WITH NO
SIGNIFICANT WEATHER AND/OR OBSTRUCTIONS TO VISIBILITY.

KSZ001>006-013>018-027>032-041>047-290900-
NORTHWEST KANSAS

CITY           SKY/WX    TMP DP  RH WIND       PRES   REMARKS
GOODLAND       MOCLDY    56  50  80 S10       30.08F
HAYS           CLEAR     57  48  72 SW3       30.05S
HILL CITY      CLEAR     59  52  77 NW8       30.08R
RUSSELL        CLEAR     60  56  86 S10       30.03R
$$

KSZ061>065-074>080-084>089-290900-
SOUTHWEST KANSAS

CITY           SKY/WX    TMP DP  RH WIND       PRES   REMARKS
DODGE CITY     CLEAR     58  52  80 SE3       30.08R
ELKHART          N/A     60  51  72 E8          N/A
GARDEN CITY    MOCLDY    59  51  75 E8        30.06F
GREAT BEND     CLEAR     59  50  72 S7        30.05R
LIBERAL        MOCLDY    63  48  59 SW5       30.10R
PRATT          CLEAR     61  52  71 SE6       30.07R
$$

KSZ066>073-081>083-090>101-290900-
SOUTHEAST KANSAS

CITY           SKY/WX    TMP DP  RH WIND       PRES   REMARKS
CHANUTE        CLEAR     63  61  93 S5        30.05R
COFFEYVILLE    CLEAR     65  63  93 S3        30.05R
HUTCHINSON     CLEAR     63  58  83 CALM      30.05R
MEDICINE LODGE   N/A     59  53  80 NE3       30.04R
NEWTON         CLEAR     63  54  72 SE5       30.08
PARSONS        CLEAR     62  61  96 CALM      30.06R
WICHITA INTL   CLEAR     65  58  78 E3        30.05R
WICHITA JABRA  CLEAR     62  58  86 SE5       30.05R
WICHITA MCCONL CLEAR     66  58  75 SE8       30.06R
WINFIELD       CLEAR     66  61  84 CALM      30.05R
$$

KSZ007>012-019>026-033>040-048>060-102>105-290900-
NORTHEAST KANSAS

CITY           SKY/WX    TMP DP  RH WIND       PRES   REMARKS
CONCORDIA      CLEAR     63  54  72 S9        30.02S
EMPORIA        CLEAR     58  56  93 S9        30.05R
LAWRENCE       CLEAR     57  56  96 CALM      30.03R
MANHATTAN      CLEAR     58  55  90 CALM      30.02S
MARYSVILLE     CLEAR     59  55  88 CALM      30.02R
OLATHE IND     CLEAR     59  59 100 S5        30.04S
OLATHE EXE     CLEAR     59  58  96 S3        30.04R
SALINA         CLEAR     61  58  90 CALM      30.03S
TOPEKA BILLARD   N/A     60  58  92 CALM      30.02S
TOPEKA FORBES  CLEAR     61  58  90 CALM      30.02S
$$




USA.gov is the U.S. government's official web portal to all federal, state and local government web resources and services.